| time (UTC) | temp F | wind direction | speed MPH | gust MPH | rain 1hr in | rain 24hr in | rain mn in | humidity % | barometer mb |
| 20260506094610 | 48 | 312 | 7.0 | 15.0 | 0.00 | 0.00 | 0.00 | 29 | 1010.3 |
| 20260506093805 | 50 | 256 | 4.0 | 14.0 | 0.00 | 0.00 | 0.00 | 30 | 1009.9 |
| 20260506092835 | 51 | 252 | 4.0 | 14.0 | 0.00 | 0.00 | 0.00 | 30 | 1009.7 |
| 20260506091920 | 48 | 244 | 5.0 | 12.0 | 0.00 | 0.00 | 0.00 | 31 | 1010.5 |
| 20260506091028 | 48 | 292 | 5.0 | 14.0 | 0.00 | 0.00 | 0.00 | 32 | 1010.7 |
| 20260506090055 | 48 | 308 | 6.0 | 14.0 | 0.00 | 0.00 | 0.00 | 34 | 1010.5 |
| 20260506085155 | 48 | 282 | 5.0 | 14.0 | 0.00 | 0.00 | 0.00 | 34 | 1010.6 |
| 20260506084240 | 47 | 298 | 4.0 | 15.0 | 0.00 | 0.00 | 0.00 | 36 | 1010.4 |
| 20260506083420 | 47 | 290 | 4.0 | 10.0 | 0.00 | 0.00 | 0.00 | 37 | 1010.7 |
| 20260506082550 | 47 | 263 | 7.0 | 17.0 | 0.00 | 0.00 | 0.00 | 38 | 1010.6 |
| 20260506081632 | 48 | 305 | 5.0 | 14.0 | 0.00 | 0.00 | 0.00 | 37 | 1010.4 |
| 20260506080720 | 47 | 288 | 5.0 | 14.0 | 0.00 | 0.00 | 0.00 | 38 | 1010.7 |
| 20260506073112 | 46 | 271 | 6.0 | 13.0 | 0.00 | 0.00 | 0.00 | 42 | 1010.4 |
| 20260506072235 | 46 | 288 | 4.0 | 11.0 | 0.00 | 0.00 | 0.00 | 44 | 1010.3 |
| 20260506071322 | 46 | 272 | 5.0 | 16.0 | 0.00 | 0.00 | 0.00 | 45 | 1010.4 |
| 20260506070420 | 46 | 281 | 7.0 | 16.0 | 0.00 | 0.00 | 0.00 | 45 | 1010.4 |
| 20260506061850 | 44 | 278 | 4.0 | 10.0 | 0.00 | 0.00 | 0.00 | 49 | 1010.4 |
| 20260506060925 | 44 | 267 | 4.0 | 10.0 | 0.00 | 0.00 | 0.00 | 52 | 1010.5 |
| 20260506050631 | 41 | 293 | 4.0 | 11.0 | 0.00 | 0.00 | 0.00 | 61 | 1010.5 |
| 20260506044910 | 39 | 270 | 5.0 | 10.0 | 0.00 | 0.00 | 0.00 | 63 | 1010.5 |
| 20260506044025 | 39 | 284 | 5.0 | 10.0 | 0.00 | 0.00 | 0.00 | 65 | 1010.5 |
| 20260506043114 | 38 | 280 | 4.0 | 10.0 | 0.00 | 0.00 | 0.00 | 65 | 1010.6 |
| 20260506042135 | 38 | 278 | 4.0 | 10.0 | 0.00 | 0.00 | 0.00 | 66 | 1010.6 |
| 20260506041205 | 37 | 273 | 4.0 | 8.0 | 0.00 | 0.00 | 0.00 | 68 | 1010.7 |
| 20260506040250 | 36 | 262 | 3.0 | 7.0 | 0.00 | 0.00 | 0.00 | 70 | 1010.8 |
| 20260506035410 | 35 | 238 | 3.0 | 8.0 | 0.00 | 0.00 | 0.00 | 71 | 1010.8 |
| 20260506034452 | 35 | 225 | 3.0 | 6.0 | 0.00 | 0.00 | 0.00 | 72 | 1010.8 |
| 20260506033540 | 34 | 215 | 2.0 | 4.0 | 0.00 | 0.00 | 0.00 | 72 | 1010.7 |
| 20260506032655 | 34 | 211 | 2.0 | 3.0 | 0.00 | 0.00 | 0.00 | 72 | 1010.7 |
| 20260506031735 | 34 | 213 | 2.0 | 4.0 | 0.00 | 0.00 | 0.00 | 72 | 1010.6 |
| 20260506030850 | 34 | 222 | 2.0 | 5.0 | 0.00 | 0.00 | 0.00 | 72 | 1010.5 |
| 20260506025948 | 33 | 252 | 2.0 | 4.0 | 0.00 | 0.00 | 0.00 | 72 | 1010.4 |
| 20260506025015 | 33 | 250 | 2.0 | 4.0 | 0.00 | 0.00 | 0.00 | 72 | 1010.4 |
| 20260506024130 | 33 | 229 | 3.0 | 5.0 | 0.00 | 0.00 | 0.00 | 72 | 1010.3 |
| 20260506023230 | 33 | 223 | 3.0 | 5.0 | 0.00 | 0.00 | 0.00 | 73 | 1010.2 |
| 20260506022329 | 33 | 220 | 2.0 | 4.0 | 0.00 | 0.00 | 0.00 | 72 | 1010.2 |
| 20260506021447 | 33 | 206 | 2.0 | 4.0 | 0.00 | 0.00 | 0.00 | 71 | 1010.0 |
| 20260506020555 | 34 | 213 | 2.0 | 4.0 | 0.00 | 0.00 | 0.00 | 71 | 1009.9 |
| 20260506015610 | 34 | 254 | 2.0 | 5.0 | 0.00 | 0.00 | 0.00 | 71 | 1009.9 |
| 20260506014705 | 34 | 269 | 2.0 | 5.0 | 0.00 | 0.00 | 0.00 | 71 | 1009.8 |
| 20260506013740 | 34 | 268 | 3.0 | 5.0 | 0.00 | 0.00 | 0.00 | 70 | 1009.7 |
| 20260506012830 | 34 | 267 | 3.0 | 6.0 | 0.00 | 0.00 | 0.00 | 70 | 1009.7 |
| 20260506011940 | 34 | 264 | 4.0 | 9.0 | 0.00 | 0.00 | 0.00 | 70 | 1009.7 |
| 20260506011030 | 34 | 265 | 4.0 | 7.0 | 0.00 | 0.00 | 0.00 | 70 | 1009.6 |
| 20260506010130 | 35 | 264 | 4.0 | 7.0 | 0.00 | 0.00 | 0.00 | 70 | 1009.5 |
| 20260506005235 | 35 | 261 | 4.0 | 7.0 | 0.00 | 0.00 | 0.00 | 70 | 1009.4 |
| 20260506004335 | 35 | 259 | 4.0 | 9.0 | 0.00 | 0.00 | 0.00 | 69 | 1009.3 |
| 20260506003444 | 35 | 253 | 3.0 | 7.0 | 0.00 | 0.00 | 0.00 | 69 | 1009.2 |
| 20260506002555 | 35 | 250 | 3.0 | 7.0 | 0.00 | 0.00 | 0.00 | 69 | 1009.1 |
| 20260506001705 | 35 | 253 | 3.0 | 6.0 | 0.00 | 0.00 | 0.00 | 68 | 1009.1 |
| 20260506000745 | 35 | 247 | 3.0 | 5.0 | 0.00 | 0.00 | 0.00 | 68 | 1008.9 |
| 20260505235835 | 35 | 254 | 4.0 | 7.0 | 0.00 | 0.00 | 0.00 | 67 | 1008.8 |
| 20260505234955 | 36 | 253 | 3.0 | 6.0 | 0.00 | 0.00 | 0.00 | 67 | 1008.7 |
| 20260505234120 | 36 | 258 | 4.0 | 6.0 | 0.00 | 0.00 | 0.00 | 66 | 1008.6 |
| 20260505233149 | 36 | 262 | 5.0 | 9.0 | 0.00 | 0.00 | 0.00 | 66 | 1008.4 |
| 20260505232250 | 36 | 261 | 4.0 | 8.0 | 0.00 | 0.00 | 0.00 | 65 | 1008.4 |
| 20260505231355 | 36 | 264 | 4.0 | 6.0 | 0.00 | 0.00 | 0.00 | 65 | 1008.3 |
| 20260505230435 | 37 | 268 | 4.0 | 7.0 | 0.00 | 0.00 | 0.00 | 64 | 1008.3 |
| 20260505225535 | 37 | 268 | 4.0 | 9.0 | 0.00 | 0.00 | 0.00 | 63 | 1008.1 |
| 20260505224640 | 37 | 278 | 3.0 | 8.0 | 0.00 | 0.00 | 0.00 | 63 | 1008.0 |
| 20260505223735 | 37 | 269 | 4.0 | 8.0 | 0.00 | 0.00 | 0.00 | 62 | 1007.9 |
| 20260505222840 | 37 | 270 | 4.0 | 8.0 | 0.00 | 0.00 | 0.00 | 62 | 1007.9 |
| 20260505221955 | 38 | 269 | 4.0 | 8.0 | 0.00 | 0.00 | 0.00 | 61 | 1007.8 |
| 20260505221120 | 38 | 272 | 4.0 | 8.0 | 0.00 | 0.00 | 0.00 | 61 | 1007.8 |
| 20260505220230 | 38 | 270 | 4.0 | 8.0 | 0.00 | 0.00 | 0.00 | 60 | 1007.7 |
| 20260505215340 | 38 | 268 | 4.0 | 10.0 | 0.00 | 0.00 | 0.00 | 60 | 1007.7 |
| 20260505214450 | 39 | 269 | 5.0 | 10.0 | 0.00 | 0.00 | 0.00 | 59 | 1007.5 |
| 20260505213531 | 39 | 267 | 4.0 | 11.0 | 0.00 | 0.00 | 0.00 | 58 | 1007.4 |
| 20260505212640 | 39 | 268 | 4.0 | 8.0 | 0.00 | 0.00 | 0.00 | 58 | 1007.3 |
| 20260505211810 | 39 | 267 | 4.0 | 8.0 | 0.00 | 0.00 | 0.00 | 58 | 1007.3 |
| 20260505210915 | 39 | 264 | 3.0 | 6.0 | 0.00 | 0.00 | 0.00 | 57 | 1007.2 |
| 20260505210006 | 40 | 268 | 4.0 | 7.0 | 0.00 | 0.00 | 0.00 | 56 | 1007.0 |
| 20260505205110 | 40 | 270 | 4.0 | 8.0 | 0.00 | 0.00 | 0.00 | 55 | 1006.9 |
| 20260505204156 | 41 | 272 | 4.0 | 8.0 | 0.00 | 0.00 | 0.00 | 54 | 1006.6 |
| 20260505203325 | 41 | 269 | 4.0 | 10.0 | 0.00 | 0.00 | 0.00 | 54 | 1006.4 |
| 20260505202434 | 41 | 268 | 4.0 | 8.0 | 0.00 | 0.00 | 0.00 | 53 | 1006.3 |
| 20260505201520 | 41 | 269 | 4.0 | 10.0 | 0.00 | 0.00 | 0.00 | 53 | 1006.2 |
| 20260505200615 | 41 | 273 | 5.0 | 8.0 | 0.00 | 0.00 | 0.00 | 52 | 1006.1 |
| 20260505195705 | 42 | 271 | 5.0 | 10.0 | 0.00 | 0.00 | 0.00 | 51 | 1005.9 |
| 20260505194800 | 42 | 272 | 4.0 | 8.0 | 0.00 | 0.00 | 0.00 | 50 | 1005.7 |
| 20260505193930 | 43 | 271 | 5.0 | 13.0 | 0.00 | 0.00 | 0.00 | 50 | 1005.6 |
| 20260505193020 | 43 | 266 | 5.0 | 13.0 | 0.00 | 0.00 | 0.00 | 49 | 1005.5 |
| 20260505192120 | 43 | 264 | 7.0 | 17.0 | 0.00 | 0.00 | 0.00 | 48 | 1005.4 |
| 20260505191218 | 43 | 263 | 6.0 | 11.0 | 0.00 | 0.00 | 0.00 | 47 | 1005.2 |
| 20260505190302 | 44 | 264 | 6.0 | 11.0 | 0.00 | 0.00 | 0.00 | 46 | 1005.0 |
| 20260505185420 | 44 | 261 | 6.0 | 13.0 | 0.00 | 0.00 | 0.00 | 45 | 1004.9 |
| 20260505184600 | 44 | 258 | 6.0 | 14.0 | 0.00 | 0.00 | 0.00 | 45 | 1004.8 |
| 20260505183705 | 45 | 257 | 6.0 | 15.0 | 0.00 | 0.00 | 0.00 | 44 | 1004.6 |
| 20260505182815 | 45 | 267 | 6.0 | 11.0 | 0.00 | 0.00 | 0.00 | 43 | 1004.4 |
| 20260505181910 | 46 | 264 | 6.0 | 13.0 | 0.00 | 0.00 | 0.00 | 42 | 1004.1 |
| 20260505181010 | 46 | 263 | 7.0 | 14.0 | 0.00 | 0.00 | 0.00 | 42 | 1003.9 |
| 20260505180130 | 47 | 267 | 6.0 | 11.0 | 0.00 | 0.00 | 0.00 | 42 | 1003.7 |
| 20260505175310 | 47 | 273 | 7.0 | 15.0 | 0.00 | 0.00 | 0.00 | 41 | 1003.6 |
| 20260505174430 | 47 | 260 | 8.0 | 15.0 | 0.00 | 0.00 | 0.00 | 40 | 1003.4 |
| 20260505173605 | 47 | 262 | 9.0 | 19.0 | 0.00 | 0.00 | 0.00 | 40 | 1003.3 |
| 20260505172650 | 48 | 267 | 6.0 | 12.0 | 0.00 | 0.00 | 0.00 | 39 | 1003.1 |
| 20260505171815 | 48 | 265 | 8.0 | 14.0 | 0.00 | 0.00 | 0.00 | 40 | 1003.0 |
| 20260505170910 | 49 | 262 | 5.0 | 13.0 | 0.00 | 0.00 | 0.00 | 39 | 1002.9 |
| 20260505170025 | 49 | 259 | 6.0 | 13.0 | 0.00 | 0.00 | 0.00 | 39 | 1002.9 |
| 20260505165120 | 48 | 269 | 9.0 | 19.0 | 0.00 | 0.00 | 0.00 | 38 | 1002.8 |
| 20260505164156 | 50 | 276 | 8.0 | 21.0 | 0.00 | 0.00 | 0.00 | 36 | 1002.5 |
| 20260505163255 | 50 | 276 | 9.0 | 21.0 | 0.00 | 0.00 | 0.00 | 34 | 1002.4 |
| 20260505162409 | 50 | 276 | 7.0 | 17.0 | 0.00 | 0.00 | 0.00 | 33 | 1002.2 |
| 20260505161530 | 51 | 264 | 7.0 | 17.0 | 0.00 | 0.00 | 0.00 | 32 | 1002.1 |
| 20260505160625 | 50 | 259 | 10.0 | 24.0 | 0.00 | 0.00 | 0.00 | 35 | 1002.1 |
| 20260505153003 | 51 | 258 | 10.0 | 22.0 | 0.00 | 0.00 | 0.00 | 33 | 1001.5 |
| 20260505152110 | 52 | 272 | 8.0 | 18.0 | 0.00 | 0.00 | 0.00 | 32 | 1001.3 |
| 20260505151215 | 52 | 280 | 7.0 | 15.0 | 0.00 | 0.00 | 0.00 | 33 | 1001.4 |
| 20260505150240 | 51 | 286 | 4.0 | 12.0 | 0.00 | 0.00 | 0.00 | 34 | 1001.5 |
| 20260505124715 | 50 | 280 | 9.0 | 21.0 | 0.00 | 0.00 | 0.00 | 42 | 1001.4 |
| 20260505123800 | 51 | 314 | 5.0 | 14.0 | 0.00 | 0.00 | 0.00 | 42 | 1001.2 |
| 20260505122940 | 50 | 292 | 6.0 | 18.0 | 0.00 | 0.00 | 0.00 | 42 | 1001.2 |
| 20260505122010 | 50 | 272 | 7.0 | 15.0 | 0.00 | 0.00 | 0.00 | 44 | 1001.3 |
| 20260505121043 | 50 | 296 | 8.0 | 18.0 | 0.00 | 0.00 | 0.00 | 45 | 1001.4 |
| 20260505120123 | 50 | 310 | 10.0 | 23.0 | 0.00 | 0.00 | 0.00 | 47 | 1001.0 |
| 20260505115250 | 51 | 291 | 8.0 | 21.0 | 0.00 | 0.00 | 0.00 | 44 | 1000.6 |
| 20260505114400 | 51 | 272 | 10.0 | 23.0 | 0.00 | 0.00 | 0.00 | 40 | 1000.4 |
| 20260505113455 | 51 | 281 | 8.0 | 19.0 | 0.00 | 0.00 | 0.00 | 43 | 1000.4 |
| 20260505112600 | 51 | 280 | 10.0 | 21.0 | 0.00 | 0.00 | 0.00 | 43 | 1000.2 |
| 20260505111730 | 52 | 304 | 7.0 | 15.0 | 0.00 | 0.00 | 0.00 | 41 | 1000.1 |
| 20260505110854 | 52 | 286 | 8.0 | 20.0 | 0.00 | 0.00 | 0.00 | 41 | 999.9 |
| 20260505101625 | 53 | 272 | 9.0 | 18.0 | 0.00 | 0.00 | 0.00 | 44 | 999.0 |
| 20260505100755 | 52 | 293 | 10.0 | 21.0 | 0.00 | 0.00 | 0.00 | 45 | 998.9 |
| 20260505095830 | 52 | 294 | 12.0 | 23.0 | 0.00 | 0.00 | 0.00 | 47 | 998.7 |
| 20260505094930 | 53 | 274 | 10.0 | 22.0 | 0.00 | 0.00 | 0.00 | 41 | 998.3 |